Location: Saratoga Springs
(43.0831°N, 73.7850°W)
Time: 12:35:03
(UTC-04:00)

Vanguard 1 Rocket - Pass Details

Date: 20 April 2024
Orbit: 651 x 4220 km, 34.3° (Epoch: 19 May)

Event Time Altitude Azimuth Distance (km) Brightness Sun altitude
Rises 21:50:12 0° 260° (W) 3,450 10.9 -20.8°
Reaches altitude 10° 21:52:20 10° 253° (WSW) 2,731 10.2 -21.1°
Maximum altitude 21:58:32 45° 181° (S) 1,821 8.6 -21.9°
Enters shadow 22:02:06 34° 137° (SE) 2,528 9.0 -22.4°
